Weather History for CYVO - February, 2013

Change the Weather History Date:

Tuesday, February 19, 2013

  Actual Average Record
Temperature  
Mean Temperature 18 °F -  
Max Temperature 24 °F 17 °F 33 °F (1998)
Min Temperature 11 °F -2 °F -29 °F (2007)
Degree Days  
Heating Degree Days 48    
Moisture  
Dew Point 17 °F    
Average Humidity 86    
Maximum Humidity 100    
Minimum Humidity 63    
Precipitation  
Precipitation 0.02 in - - ()
Sea Level Pressure  
Sea Level Pressure 29.68 in    
Wind  
Wind Speed 12 mph ()    
Max Wind Speed 22 mph    
Max Gust Speed 30 mph    
Visibility 6.6 miles    
Events Snow    
Averages and records for this station are not official NWS values.
T = Trace of Precipitation, MM = Missing Value Source: Averaged Metar Reports

Daily Weather History Graph

Daily Weather History Graph

Search for Another Location

Airport or City:

Trip Planner

Search our weather history database for the weather conditions in past years. The results will help you decide how hot, cold, wet, or windy it might be!

Date:

Astronomy

Feb. 19, 2013 Rise Set
Actual Time 7:10 AM EST 5:40 PM EST
Civil Twilight 6:38 AM EST 6:12 PM EST
Nautical Twilight 6:02 AM EST 6:48 PM EST
Astronomical Twilight 5:26 AM EST 7:24 PM EST
Moon 11:56 AM EST (2/19) 2:54 AM EST (2/19)
Length of Visible Light 11h 33m
Length of Day
10h 30m
Waxing Gibbous, 67% of the Moon is Illuminated
Feb 19
Waxing Gibbous
Feb 25
Full
Mar 4
Last Quarter
Mar 11
New
Mar 19
First Quarter

Hourly Weather History & Observations

Time (EST) Temp. Windchill Dew Point Humidity Pressure Visibility Wind Dir Wind Speed Gust Speed Precip Events Conditions
12:19 AM 14.0 °F -0.8 °F 10.4 °F 86% 29.99 in 2.0 mi SE 13.8 mph - N/A Snow Light Snow
12:25 AM 14.0 °F -0.2 °F 10.4 °F 86% 29.98 in 3.0 mi SE 12.7 mph - N/A Snow Light Snow
12:48 AM 14.0 °F -0.2 °F 12.2 °F 93% 29.97 in 2.5 mi SE 12.7 mph 18.4 mph N/A Snow Light Snow
12:53 AM 14.0 °F 1.2 °F 12.2 °F 93% 29.97 in 3.0 mi SE 10.4 mph - N/A Snow Light Snow
12:58 AM 14.0 °F -0.2 °F 12.2 °F 93% 29.96 in 6.0 mi SE 12.7 mph - N/A Snow Light Snow
1:00 AM 14 °F - 11 °F 82% 29.94 in - Calm Calm - -  
1:00 AM 14.0 °F -0.2 °F 12.2 °F 93% 29.96 in 8.0 mi SE 12.7 mph - N/A Snow Light Snow
1:45 AM 14.0 °F -1.4 °F 12.2 °F 93% 29.94 in 5.0 mi SE 15.0 mph 23.0 mph N/A Snow Light Snow
2:00 AM 15.8 °F 2.1 °F 12.2 °F 86% 29.93 in 4.0 mi SE 12.7 mph 19.6 mph N/A Snow Light Snow
2:11 AM 15.8 °F 0.3 °F 12.2 °F 86% 29.92 in 5.0 mi SE 16.1 mph - N/A Snow Light Snow
2:22 AM 15.8 °F 1.4 °F 12.2 °F 86% 29.92 in 6.0 mi SE 13.8 mph 19.6 mph N/A Snow Light Snow
2:47 AM 15.8 °F 2.7 °F 12.2 °F 86% 29.90 in 9.0 mi SE 11.5 mph 19.6 mph N/A   Overcast
3:00 AM 15.8 °F 2.7 °F 12.2 °F 86% 29.89 in 9.0 mi SE 11.5 mph 17.3 mph N/A   Overcast
4:00 AM 16 °F - 11 °F 74% 29.82 in - ESE 12.7 mph - -  
5:00 AM 17.6 °F 1.3 °F 10.4 °F 73% 29.81 in 9.0 mi SE 19.6 mph 25.3 mph N/A   Overcast
6:00 AM 17.6 °F 1.3 °F 10.4 °F 73% 29.78 in 15.0 mi SE 19.6 mph 25.3 mph N/A   Overcast
7:00 AM 17 °F - 10 °F 65% 29.73 in - Calm Calm - -  
7:20 AM 17.6 °F 1.7 °F 12.2 °F 79% 29.74 in 7.0 mi SE 18.4 mph - N/A Snow Light Snow
8:00 AM 17.6 °F 2.2 °F 12.2 °F 79% 29.72 in 15.0 mi SE 17.3 mph 25.3 mph N/A Snow Light Snow
9:00 AM 17.6 °F 3.2 °F 14.0 °F 86% 29.70 in 6.0 mi SE 15.0 mph 23.0 mph N/A Snow Light Snow
10:00 AM 19.4 °F 5.5 °F 12.2 °F 74% 29.67 in 15.0 mi SE 15.0 mph 28.8 mph N/A Snow Light Snow
10:28 AM 19.4 °F 6.6 °F 12.2 °F 74% 29.65 in 15.0 mi SE 12.7 mph 24.2 mph N/A Snow Light Snow
11:00 AM 21.2 °F 6.4 °F 10.4 °F 63% 29.62 in 15.0 mi SE 18.4 mph 25.3 mph N/A Snow Light Snow
11:52 AM 21.2 °F 5.2 °F 12.2 °F 68% 29.61 in 2.5 mi SSE 21.9 mph 27.6 mph N/A Snow Light Snow
12:05 PM 21.2 °F 6.4 °F 15.8 °F 80% 29.61 in 0.8 mi SE 18.4 mph 29.9 mph N/A Snow Light Snow
12:44 PM 21.2 °F 7.8 °F 14.0 °F 74% 29.57 in 2.0 mi SE 15.0 mph 24.2 mph N/A Snow Light Snow
1:08 PM 23.0 °F 9.2 °F 15.8 °F 74% 29.56 in 1.0 mi SE 17.3 mph 26.5 mph N/A Snow Light Snow
1:20 PM 21.2 °F 7.8 °F 19.4 °F 93% 29.56 in 0.5 mi SE 15.0 mph 26.5 mph N/A Snow Snow
1:34 PM 21.2 °F 8.3 °F 19.4 °F 93% 29.55 in 1.0 mi SE 13.8 mph 20.7 mph N/A Snow Light Snow
2:00 PM 23.0 °F 10.1 °F 17.6 °F 80% 29.54 in 5.0 mi SSE 15.0 mph 20.7 mph N/A Snow Light Snow
2:25 PM 23.0 °F 9.2 °F 19.4 °F 86% 29.53 in 0.8 mi SE 17.3 mph 24.2 mph N/A Snow Light Snow
3:00 PM 23.0 °F 9.2 °F 21.2 °F 93% 29.52 in 1.5 mi SE 17.3 mph 24.2 mph N/A Snow Light Snow
3:40 PM 24.8 °F 12.9 °F 21.2 °F 86% 29.52 in 6.0 mi SE 13.8 mph - N/A Snow Light Snow
4:00 PM 24.8 °F 12.9 °F 21.2 °F 86% 29.52 in 4.0 mi SE 13.8 mph 21.9 mph N/A Snow Light Snow
4:23 PM 24.8 °F 12.9 °F 21.2 °F 86% 29.52 in 2.0 mi SSE 13.8 mph - N/A Snow Light Snow
5:00 PM 23.0 °F 10.6 °F 23.0 °F 100% 29.52 in 1.5 mi SE 13.8 mph 19.6 mph N/A Snow Light Snow
6:00 PM 23.0 °F 11.1 °F 23.0 °F 100% 29.53 in 1.5 mi SSE 12.7 mph - N/A Snow Light Snow
7:32 PM 24.8 °F 13.4 °F 23.0 °F 93% 29.54 in 2.0 mi South 12.7 mph - N/A Snow Light Freezing Drizzle
8:00 PM 24.8 °F 14.0 °F 23.0 °F 93% 29.54 in 3.0 mi South 11.5 mph - N/A Snow Light Snow
9:00 PM 24.8 °F 14.6 °F 23.0 °F 93% 29.53 in 10.0 mi SSE 10.4 mph - N/A Snow Light Snow
9:19 PM 24.8 °F 16.1 °F 23.0 °F 93% 29.54 in 15.0 mi SSE 8.1 mph - N/A Snow Light Snow
10:00 PM 24 °F - 23 °F 93%  in - Calm Calm - -  
10:00 PM 24.8 °F 15.3 °F 23.0 °F 93% 29.54 in 15.0 mi South 9.2 mph - N/A Snow Light Snow
10:26 PM 24.8 °F 14.6 °F 23.0 °F 93% 29.55 in 9.0 mi SSE 10.4 mph - N/A Snow Light Snow
10:40 PM 24.8 °F 15.3 °F 23.0 °F 93% 29.55 in 9.0 mi SSE 9.2 mph - N/A   Overcast
10:42 PM 24.8 °F 16.1 °F 23.0 °F 93% 29.55 in 9.0 mi SSE 8.1 mph - N/A Snow Light Snow
10:52 PM 24.8 °F 16.1 °F 23.0 °F 93% 29.55 in 9.0 mi SSE 8.1 mph - N/A   Overcast
10:55 PM 24.8 °F 15.3 °F 23.0 °F 93% 29.55 in 9.0 mi SSE 9.2 mph - N/A Snow Light Snow
11:00 PM 24.8 °F 16.1 °F 23.0 °F 93% 29.55 in 9.0 mi SSE 8.1 mph - N/A Snow Light Snow
11:04 PM 24.8 °F 16.1 °F 23.0 °F 93% 29.55 in 9.0 mi South 8.1 mph - N/A Snow Light Snow
11:15 PM 24.8 °F 16.1 °F 23.0 °F 93% 29.55 in 9.0 mi SSE 8.1 mph - N/A   Overcast
11:33 PM 24.8 °F 16.9 °F 23.0 °F 93% 29.54 in 9.0 mi South 6.9 mph - N/A Snow Light Snow
11:40 PM 24.8 °F 16.9 °F 23.0 °F 93% 29.54 in 9.0 mi South 6.9 mph - N/A Snow Light Snow